84P/Giclas (2020)

Japanese version
Home page
Updated on October 9, 2020

---------------------------------------------------------------------

* Profile

* Pictures

* Orbital Elements

Epoch 2020 May 31.0 TT = JDT 2459000.5
T 2020 June 3.81205 TT                                  Spoto
q   1.7188414            (2000.0)            P               Q
n   0.14752137     Peri.  281.56204     +0.86023958     -0.49436247
a   3.5473122      Node   108.17462     +0.50387176     +0.78668185
e   0.5154525      Incl.    7.55232     +0.07810963     +0.36978023
P   6.68
From 1307 observations 1978 Sept. 3-2020 Sept. 1, mean residual 0".7.
     Nongravitational parameters A1 = +0.05, A2 = -0.0024.

* Finding Charts

* Magnitudes Graph

        m1 = 9.0 + 5 log d + 20.0 log r(t - 100)

---------------------------------------------------------------------

The orbital elements are published on M.P.E.C. 2020-S188.
The charts are made with StellaNavigator Ver.10 (AstroArts).
The magnitudes graphs are made with Comet for Windows.

---------------------------------------------------------------------

Copyright(C) Seiichi Yoshida (comet@aerith.net). All rights reserved.